Volver al catálogo

STARLINK-33754

ActivoComunicacionesVLEO
NORAD 63487·PAYLOAD·🇺🇸 United States

Lanzado Apr 6, 2025 desde Cape Canaveral Space Force Station

Loading…

Próximos Pases (próximas 24 horas)

TLE

ActualizadoSource: CelesTrak SupGP

Época: Sep 15, 2026, 03:04 UTC

1 63487C 25070AD  26258.12826389 -.00012529  00000+0 -45381-3 0  2586
2 63487  43.0015 270.0297 0001548 269.9142 229.1004 15.27583360    10

Sigue STARLINK-33754 en tiempo real con AllMySat

Download on the App Store